Location: San Martino di Castrozza
(46.2667°N, 11.8000°E)
Time: 02:19:07
(UTC+00:00)

CZ-2C R/B - Pass Details

Date: 23 April 2021
Orbit: 502 x 565 km, 97.7° (Epoch: 15 May)

Event Time Altitude Azimuth Distance (km) Brightness Sun altitude
Rises 03:19:28 0° 10° (N) 2,650 6.9 -9.1°
Reaches altitude 10° 03:21:33 10° 7° (N) 1,767 5.9 -8.8°
Maximum altitude 03:25:20 65° 286° (WNW) 586 2.8 -8.2°
Drops below altitude 10° 03:29:09 10° 204° (SSW) 1,789 5.0 -7.6°
Enters shadow 03:30:43 - 202° (SSW) 2,445 5.7 -7.4°
